Regional Weather Roundup
Issued by NWS

Home | Current Version | Previous Version | Text Only | Print | Product List | Glossary Off
Versions: 1 2 3 4 5 6 7 8 9 10 11 12 13 14 15 16 17 18 19 20 21 22 23 24 25 26 27 28 29 30 31 32 33 34 35 36 37 38 39 40 41 42 43 44 45 46 47 48 49 50

000
ASUS43 KLSX 091559
RWRMO

WEATHER SUMMARY FOR MISSOURI
NATIONAL WEATHER SERVICE SPRINGFIELD MO
1100 AM CDT WED JUL 09 2014

NOTE: "FAIR" INDICATES FEW OR NO CLOUDS BELOW 12,000 FEET WITH NO
       SIGNIFICANT WEATHER AND/OR OBSTRUCTIONS TO VISIBILITY.
       CURRENT SKY AND/OR WEATHER CONDITIONS ARE NOT AVAILABLE FOR
       CHILLICOTHE AND FARMINGTON.

MOZ001>031-035>038-043-044-053-054-091700-
...NORTHERN AND WESTERN MISSOURI...

CITY           SKY/WX    TMP DP  RH WIND       PRES   REMARKS
KANSAS CTY INT SUNNY     78  63  59 N3        30.09S
KANSAS C DTWN  SUNNY     78  63  59 CALM      30.08S
LEE`S SUMMIT   SUNNY     77  62  59 VRB5      30.09S
ST JOSEPH      SUNNY     75  65  70 NW3       30.08F
CHILLICOTHE      N/A     77  57  50 VRB3      30.08S

$$
MOZ066>068-077>081-088>096-101>105-091700-
...SOUTHWEST MISSOURI...

CITY           SKY/WX    TMP DP  RH WIND       PRES   REMARKS
SPRINGFIELD    SUNNY     80  57  45 N7        30.10R
JOPLIN         SUNNY     82  58  43 N3        30.10S

$$
MOZ032>034-039>042-045>050-055>058-069>072-091700-
...CENTRAL MISSOURI...

CITY           SKY/WX    TMP DP  RH WIND       PRES   REMARKS
COLUMBIA       SUNNY     80  64  58 W8        30.05S
JEFFERSON CITY SUNNY     79  63  57 NW6       30.04S
ROLLA          SUNNY     78  62  57 W12G20    30.06S
SEDALIA        SUNNY     79  65  62 W6        30.07S
OSAGE BEACH    SUNNY     79  63  57 W7        30.07S

$$
MOZ051-052-059>065-091700-
...EAST CENTRAL MISSOURI...

CITY           SKY/WX    TMP DP  RH WIND       PRES   REMARKS
ST LOUIS INTL  MOSUNNY   83  63  50 W10       30.02S
SPIRIT OF STL  SUNNY     80  63  55 W7        30.01S
ST CHARLES     SUNNY     78  63  59 W8        30.01R

$$
MOZ072>076-082>087-097>100-106>115-091700-
...SOUTH CENTRAL AND SOUTHEAST MISSOURI...

CITY           SKY/WX    TMP DP  RH WIND       PRES   REMARKS
CAPE GIRARDEAU SUNNY     82  64  54 N10       30.02S
FARMINGTON     SUNNY     79  61  53 CALM      30.07S
POPLAR BLUFF   SUNNY     83  61  47 NW8       30.02S
WEST PLAINS    MOSUNNY   80  62  54 NW8       30.09R

$$


USA.gov is the U.S. government's official web portal to all federal, state and local government web resources and services.